CZ-6A DEB

Satellite information

Favourite Embed

Satellite Type and Status

DEBRISIN ORBIT

Key statistics

Satellite CZ-6A DEB at a glance.

Uptime

1029

Days in orbit

Revolutions

≈ 14.3

Per day

Orbit

SSO

Sun Synchronous Orbit

Inclination

98.8

Latest

Satellite identification and parameters

Extended collection of information and parameters for CZ-6A DEB.

Object identification

Identified? True

Debris? True

Object name: CZ-6A DEB

International designator: 2022-151LM

Object number (NORAD): 54561

Object ID (CCSDS): 54561

Country: PEOPLES REPUBLIC OF CHINA (PRC)

Current information (Y/N): Y

RCS size: SMALL

Orbital parameters

Period: 100.654 minutes

Inclination: 98.8159 deg

SMA: 7167.729 km

Apoapsis: 885.94 km

Periapsis: 693.247 km

RAAN: 281.9593 deg

Eccentricy: 0.01344175

Argument of periapsis: 231.6914 deg

Mean anomaly: 127.212 deg

Mean motion: 14.30640235 rev/day

Mean motion (dot): 0.0000243 rev/day2

B* drag term: 0.00085956105 1/REarth

Two-line elements (TLE)

Creation date: Sept. 4, 2025, 10:13 a.m.

Reference frame: TEME

Reference center: EARTH

Epoch: Sept. 4, 2025, 1:21 a.m. UTC

TLE line 0: 0 CZ-6A DEB

TLE line 1: 1 54561U 22151LM 25247.05678401 .00002430 00000-0 85956-3 0 9998

TLE line 2: 2 54561 98.8159 281.9593 0134417 231.6914 127.2120 14.30640235146268

Live tracking on map

Real-time ground track for satellite CZ-6A DEB.

In-orbit conjunctions

A list of the most updated potential collisions computed for object CZ-6A DEB.

Target Orbit TCA Probability of collision Miss distance Type
CZ-6A DEB LEO 2025-02-28 05:57:08 0.0001283146 915.0 (m) DEBRIS
SL-3 R/B LEO 2025-01-04 19:03:51 0.0003499788 121.0 (m) ROCKET BODY
CZ-6A DEB LEO 2024-12-13 17:43:58 0.0001030976 805.0 (m) DEBRIS
METEOR 1-11 LEO 2024-11-03 15:42:39 0.000105289 319.0 (m) PAYLOAD

Associated space launch

Chinese satellite reported for atmospheric/ocean/environmental/spatial parameter research purposes, details TBD.

CZ-6A DEB was lifted into orbit during the mission ‘Long March 6A | Yunhai 3’, on board a Long March 6A space rocket.

The launch took place on Nov. 11, 2022, 10:52 p.m. from Launch Complex 9A.

For more information about the launch, click the button.

Launch to space Long March 6A | Yunhai 3
Long March 6A | Yunhai 3

Agency: N/A

Status: Launch Successful

Launch date: Nov. 11, 2022, 10:52 p.m. UTC

Rocket: Long March 6A

Launch pad: Launch Complex 9A

Location: Taiyuan Satellite Launch Center, People's Republic of China

...

Latest news about this satellite

There are no fresh news available about this satellite. Check back as we update our databases every day.


Newsletter sign-up

Weekly statistics, charts and insights to help you stay on top of the space industry.